Weather History for Dillon, MT

Change the Weather History Date:

Wednesday, February 13, 2013

  Actual Average Record
Temperature  
Mean Temperature 37 °F 26 °F  
Max Temperature 44 °F 37 °F 54 °F (1987)
Min Temperature 29 °F 15 °F -30 °F (1949)
Degree Days  
Heating Degree Days 28    
Month to date heating degree days 456  
Since 1 July heating degree days 4856  
Cooling Degree Days 0    
Month to date cooling degree days 0  
Year to date cooling degree days 0  
Moisture  
Dew Point 19 °F    
Average Humidity 51    
Maximum Humidity 69    
Minimum Humidity 33    
Precipitation  
Precipitation 0.00 in 0.01 in 0.20 in (1980)
Month to date precipitation 0.02 0.09  
Year to date precipitation 0.20 0.37  
Snow  
Snow 0.00 in - - ()
Snow Depth T in    
Sea Level Pressure  
Sea Level Pressure 30.08 in    
Wind  
Wind Speed 14 mph (SW)    
Max Wind Speed 28 mph    
Max Gust Speed 36 mph    
Visibility 10 miles    
Events      
T = Trace of Precipitation, MM = Missing Value Source: NWS Daily Summary

Daily Weather History Graph

Daily Weather History Graph

Search for Another Location

Airport:

Trip Planner

Search our weather history database for the weather conditions in past years. The results will help you decide how hot, cold, wet, or windy it might be!

Date:

Astronomy

Feb. 13, 2013 Rise Set
Actual Time 7:34 AM MST 5:55 PM MST
Civil Twilight 7:03 AM MST 6:25 PM MST
Nautical Twilight 6:29 AM MST 7:00 PM MST
Astronomical Twilight 5:54 AM MST 7:34 PM MST
Moon 8:52 AM MST (2/13) 10:16 PM MST (2/13)
Length of Visible Light 11h 22m
Length of Day
10h 21m
Waxing Crescent, 14% of the Moon is Illuminated
Feb 13
Waxing Crescent
Feb 17
First Quarter
Feb 25
Full
Mar 4
Last Quarter
Mar 11
New

Hourly Weather History & Observations

Time (MST) Temp. Windchill Dew Point Humidity Pressure Visibility Wind Dir Wind Speed Gust Speed Precip Events Conditions
12:53 AM 34.0 °F 24.6 °F 21.9 °F 61% 30.13 in 10.0 mi South 13.8 mph 21.9 mph N/A   Overcast
1:53 AM 33.1 °F 21.5 °F 21.0 °F 61% 30.13 in 10.0 mi SW 19.6 mph 26.5 mph N/A   Overcast
2:53 AM 33.1 °F 23.0 °F 21.9 °F 64% 30.12 in 10.0 mi SSW 15.0 mph - N/A   Mostly Cloudy
3:53 AM 33.1 °F 23.0 °F 21.9 °F 64% 30.10 in 10.0 mi SW 15.0 mph - N/A   Partly Cloudy
4:53 AM 32.0 °F 23.6 °F 21.9 °F 66% 30.10 in 10.0 mi South 10.4 mph - N/A   Partly Cloudy
5:53 AM 30.9 °F 21.7 °F 21.0 °F 67% 30.10 in 10.0 mi SSW 11.5 mph - N/A   Mostly Cloudy
6:53 AM 32.0 °F 24.2 °F 21.0 °F 64% 30.09 in 10.0 mi South 9.2 mph - N/A   Scattered Clouds
7:53 AM 33.1 °F 24.4 °F 23.0 °F 66% 30.09 in 10.0 mi South 11.5 mph - N/A   Overcast
8:53 AM 37.0 °F 28.1 °F 24.1 °F 59% 30.07 in 10.0 mi SSW 15.0 mph - N/A   Mostly Cloudy
9:53 AM 39.9 °F 30.2 °F 21.9 °F 49% 30.05 in 10.0 mi WSW 20.7 mph 28.8 mph N/A   Clear
10:53 AM 42.1 °F 32.8 °F 19.9 °F 41% 30.06 in 10.0 mi WSW 21.9 mph 26.5 mph N/A   Clear
11:53 AM 42.1 °F 33.3 °F 18.0 °F 38% 30.07 in 10.0 mi West 19.6 mph 28.8 mph N/A   Mostly Cloudy
12:53 PM 42.1 °F 33.1 °F 16.0 °F 35% 30.05 in 10.0 mi WSW 20.7 mph 27.6 mph N/A   Overcast
1:34 PM 42.8 °F 34.8 °F 17.6 °F 36% 30.03 in 10.0 mi West 17.3 mph 25.3 mph N/A   Overcast
1:53 PM 42.1 °F 33.9 °F 18.0 °F 38% 30.05 in 10.0 mi WSW 17.3 mph 26.5 mph N/A   Overcast
2:53 PM 42.1 °F 33.9 °F 17.1 °F 37% 30.04 in 10.0 mi WSW 17.3 mph 25.3 mph N/A   Partly Cloudy
3:53 PM 41.0 °F 32.8 °F 15.1 °F 35% 30.04 in 10.0 mi WSW 16.1 mph 31.1 mph N/A   Clear
4:53 PM 39.9 °F 31.4 °F 16.0 °F 38% 30.05 in 10.0 mi West 16.1 mph - N/A   Clear
5:53 PM 37.0 °F 29.3 °F 15.1 °F 41% 30.09 in 10.0 mi West 11.5 mph - N/A   Clear
6:53 PM 36.0 °F 27.1 °F 16.0 °F 44% 30.09 in 10.0 mi West 13.8 mph - N/A   Partly Cloudy
7:53 PM 35.1 °F 26.9 °F 17.1 °F 48% 30.11 in 10.0 mi WSW 11.5 mph - N/A   Mostly Cloudy
8:53 PM 35.1 °F 25.9 °F 17.1 °F 48% 30.09 in 10.0 mi West 13.8 mph - N/A   Partly Cloudy
9:53 PM 34.0 °F 25.5 °F 17.1 °F 50% 30.10 in 10.0 mi West 11.5 mph - N/A   Overcast
10:53 PM 32.0 °F 27.5 °F 18.0 °F 56% 30.12 in 10.0 mi West 4.6 mph - N/A   Overcast
11:53 PM 30.0 °F 23.2 °F 19.0 °F 64% 30.15 in 10.0 mi ESE 6.9 mph - N/A   Mostly Cloudy